EHI
0 0 0 0 0 0 0 0 0 0 0 0 0 0 0 0 0 0 0 0 0 0 0 0 0 0 0 0 0 0 0 0 0 0 0 0 0 0 0 0 0 0 0 0
0 0 0 0 0 0 0 0 0 0 0 0 0 0 0 0 0 0 0 0 0 0 0 0 0 0 0 0 0 0 0 0 0 0 0 0 0 0 0 0 0 0 0 0
0 0 0 0 0 0 0 0 0 0 0 0 0 0 0 0 0 0 0 0 0 0 0 0 0 0 0 0 0 0 0 0 0 0 0 0 0 0 0 0 0 0 0 0
0 0 0 0 0 0 0 0 0 0 0 0 0 0 0 0 0 0 0 0 0 0 0 0 0 0 0 1 1 1 0 0 0 0 0 0 0 0 0 0 0 0 0 0
0 0 0 0 0 0 0 0 0 0 0 0 0 0 0 0 0 0 0 0 0 0 0 0 0 0 0 1 2 2 1 0 0 0 0 0 0 0 0 0 0 0 0 0
0 0 0 0 0 0 0 0 0 0 0 0 0 0 0 0 0 0 0 0 0 0 0 0 0 0 0 1 2 2 2 1 0 0 0 0 0 0 0 0 0 0 0 0
0 0 0 0 0 0 0 0 0 0 0 0 0 0 0 0 0 0 0 0 0 0 0 0 0 0 0 0 1 1 2 2 1 0 0 0 0 0 0 0 0 0 0 0
0 0 0 0 0 0 0 0 0 0 0 0 0 0 0 0 0 0 0 0 0 0 0 0 0 0 0 0 0 1 2 2 1 0 0 0 0 0 0 0 0 0 0 0
0 0 0 0 0 0 0 0 0 0 0 0 0 0 0 0 0 0 0 0 0 0 0 0 0 0 0 0 0 1 1 1 0 0 0 0 0 0 0 0 0 0 0 0
0 0 0 0 0 0 0 0 0 0 0 0 0 0 0 0 0 0 0 0 0 0 0 0 0 0 0 0 0 0 0 0 0 0 0 0 0 0 0 0 0 0 0 0
0 0 0 0 0 0 0 0 0 0 0 0 0 0 0 0 0 0 0 0 0 0 0 0 0 0 0 0 0 0 0 0 0 0 0 0 0 0 0 0 0 0 0 0
0 0 0 0 0 0 0 0 0 0 0 0 0 0 0 0 0 0 0 0 0 0 0 0 0 0 0 0 0 0 0 0 0 0 0 0 0 0 0 0 0 0 0 0
0 0 0 0 0 0 0 0 0 0 0 0 0 0 0 0 0 0 0 0 0 0 0 0 0 0 0 0 0 0 0 0 0 0 0 0 0 0 0 0 0 0 0 0
0 0 0 0 0 0 0 0 0 0 0 0 0 0 0 0 0 0 0 0 0 0 0 0 0 0 0 0 0 0 0 0 0 0 0 0 0 0 0 0 0 0 0 0
0 0 0 0 0 0 0 0 0 0 0 0 0 0 0 0 0 0 0 0 0 0 0 0 0 0 0 0 0 0 0 0 0 0 0 0 0 0 0 0 0 0 0 0
0 0 0 0 0 0 0 0 0 0 0 0 0 0 0 0 0 0 0 0 0 0 0 0 0 0 0 0 0 0 0 0 0 0 0 0 0 0 0 0 0 0 0 0
0 0 0 0 0 0 0 0 0 0 0 0 0 0 0 0 0 0 0 0 0 0 0 0 0 0 0 0 0 0 0 0 0 0 0 0 0 0 0 0 0 0 0 0
0 0 0 0 0 0 0 0 0 0 0 0 0 0 0 0 0 0 0 0 0 0 0 0 0 0 0 0 0 0 0 0 0 0 0 0 0 0 0 0 0 0 0 0
0 0 0 0 0 0 0 0 0 0 0 0 0 0 0 0 0 0 0 0 0 0 0 0 0 0 0 0 0 0 0 0 0 0 0 0 0 0 0 0 0 0 0 0
0 0 0 0 0 0 0 0 0 0 0 0 0 0 0 0 0 0 0 0 0 0 0 0 0 0 0 0 0 0 0 0 0 0 0 0 0 0 0 0 0 0 0 0
0 0 0 0 0 0 0 0 0 0 0 0 0 0 0 0 0 0 0 0 0 0 0 0 0 0 0 0 0 0 0 0 0 0 0 0 0 0 0 0 0 0 0 0
0 0 0 0 0 0 0 0 0 0 0 0 0 0 0 0 0 0 0 0 0 0 0 0 0 0 0 0 0 0 0 0 0 0 0 0 0 0 0 0 0 0 0 0
0 0 0 0 0 0 0 0 0 0 0 0 0 0 0 0 0 0 0 0 0 0 0 0 0 0 0 0 0 0 0 0 0 0 0 0 0 0 0 0 0 0 0 0
0 0 0 0 0 0 0 0 0 0 0 0 0 0 0 0 0 0 0 0 0 0 0 0 0 0 0 0 0 0 0 0 0 0 1 1 1 0 0 0 0 0 0 0
0 0 0 0 0 0 0 0 0 0 0 0 0 0 0 0 0 0 0 0 0 0 0 0 0 0 0 0 0 0 0 0 0 1 2 2 1 0 0 0 0 0 0 0
0 0 0 0 0 0 0 0 0 0 0 0 0 0 0 0 0 0 0 0 0 0 0 0 0 0 0 0 0 0 0 0 1 2 3 3 1 0 0 0 0 0 0 0
Wind_Speed
4 6 6 6 5 3 3 4 3 2 2 4 6 6 6 9 11 11 10 10 9 8 7 6 6 6 7 7 6 6 6 6 4 3 2 2 3 2 3 3 4 2 2 2
7 7 4 3 4 5 6 6 4 2 2 4 5 7 6 8 11 11 11 11 10 9 9 8 8 8 8 8 7 7 6 5 4 2 2 2 2 2 3 2 2 2 2 2
7 2 3 5 6 7 6 6 4 2 2 5 5 6 7 7 9 10 11 10 10 11 11 10 10 9 9 9 8 6 6 6 5 4 2 3 3 3 3 2 2 2 2 2
6 3 5 6 6 7 5 3 4 4 5 3 4 4 4 6 8 10 12 11 11 11 11 10 10 10 10 9 8 7 7 6 5 5 4 4 2 2 2 2 3 3 3 3
5 5 6 7 5 5 1 1 3 5 6 5 6 7 2 5 7 9 11 12 12 12 12 11 11 11 10 9 8 7 7 6 6 5 4 4 3 2 2 2 3 3 3 3
3 3 4 3 3 4 4 4 3 4 5 7 5 7 3 3 4 4 7 10 11 12 12 11 10 10 9 8 8 7 7 6 6 5 5 4 4 4 4 3 3 3 3 3
6 6 4 3 5 6 7 6 4 5 5 3 2 6 3 1 1 3 4 7 10 11 12 12 12 11 11 10 9 9 8 8 7 7 6 5 5 4 4 3 4 3 3 3
8 7 7 5 6 6 8 8 5 3 3 1 4 6 1 1 1 2 3 5 8 11 11 12 12 12 11 11 10 10 9 8 8 7 6 5 5 3 2 3 3 3 2 2
7 5 6 4 4 6 7 7 5 6 4 5 4 3 2 3 2 1 2 4 7 10 11 12 12 12 12 11 11 10 10 9 8 7 6 6 5 4 4 4 3 2 2 2
5 5 6 5 5 3 5 5 5 6 5 5 4 4 2 2 1 2 2 4 6 9 11 11 11 11 11 11 10 10 10 9 8 7 6 5 5 5 4 4 4 3 3 3
7 6 6 7 9 8 7 7 6 6 5 5 3 1 3 1 1 1 2 3 6 8 10 11 11 11 11 10 10 10 10 9 8 8 7 6 6 5 5 4 4 4 4 5
6 6 7 7 3 4 8 8 8 7 5 6 5 1 4 2 2 2 1 3 5 7 9 10 10 10 11 11 10 10 10 10 9 8 8 7 6 6 6 5 5 5 4 4
6 7 7 7 7 7 8 8 9 9 7 7 7 2 4 1 1 1 1 3 5 6 8 9 10 10 11 11 10 10 10 10 9 8 8 8 7 7 6 6 5 5 4 4
6 8 9 8 4 6 9 9 10 11 9 9 10 7 4 3 2 1 2 3 5 7 8 9 10 10 10 11 11 11 10 10 9 9 9 9 8 7 7 6 6 5 5 5
8 10 9 7 5 7 9 11 12 15 14 12 10 10 8 5 4 3 3 4 5 7 8 9 10 10 11 11 11 11 10 10 10 10 10 9 8 8 7 6 6 5 5 4
7 8 8 9 8 9 11 12 14 15 14 14 12 11 7 6 4 4 4 5 6 7 8 9 10 11 11 12 12 11 11 10 10 10 10 9 8 8 7 7 7 6 6 5
8 8 9 9 7 8 13 13 14 13 13 12 13 10 6 6 6 6 5 6 7 7 8 9 10 10 11 11 12 12 12 11 11 11 10 9 9 9 9 8 7 7 6 5
10 10 7 7 8 13 7 4 9 11 12 11 10 8 7 7 7 6 5 6 7 6 7 8 9 9 10 10 11 11 11 11 11 11 10 10 9 9 9 9 8 8 7 6
12 11 7 7 10 10 6 6 7 9 10 10 10 8 6 5 5 6 5 6 6 6 6 6 7 9 9 10 10 10 11 11 11 11 11 11 11 10 10 10 9 8 7 7
11 11 9 9 11 10 5 4 5 8 10 7 8 8 7 6 6 4 4 4 4 4 4 4 5 7 8 8 9 11 11 12 12 11 11 11 11 11 11 10 9 8 7 7
12 12 13 12 11 8 3 3 6 9 3 2 5 7 7 8 5 1 2 2 3 3 3 4 5 6 6 8 9 10 10 11 10 10 10 10 10 10 10 9 8 8 7 7
12 10 12 11 12 8 4 6 7 3 1 1 3 4 5 5 3 2 2 3 3 3 4 5 5 5 5 7 8 9 9 8 8 9 9 10 10 9 8 8 8 8 8 7
10 9 6 8 6 1 5 5 4 3 4 3 2 3 4 5 4 3 3 3 3 4 4 5 5 5 5 6 7 8 7 7 8 9 9 9 10 9 9 9 9 8 7 7
7 6 7 7 6 6 5 4 4 4 5 4 3 3 4 4 4 3 3 3 3 4 4 4 5 5 5 5 5 5 6 7 9 9 9 8 9 9 8 7 7 7 7 7
6 7 8 9 6 6 6 5 4 3 4 3 3 4 4 4 4 3 3 3 3 3 4 4 4 5 5 5 5 4 5 7 8 8 8 8 7 7 7 6 4 6 5 5
8 9 9 7 6 5 5 4 4 4 4 3 3 3 3 3 3 3 3 3 3 4 4 4 4 4 4 4 4 4 5 7 7 7 7 6 6 6 6 6 5 3 2 4
Wind_Direction
192 210 208 207 219 266 234 229 228 200 167 232 243 245 214 191 204 209 204 202 202 198 187 178 176 175 175 175 178 169 166 162 161 157 152 137 122 112 98 75 65 79 100 105
194 212 218 219 205 224 227 233 230 181 181 245 257 255 234 207 210 214 211 205 203 195 188 181 185 184 183 181 186 180 169 168 171 164 141 134 121 111 91 93 97 91 107 125
214 159 176 198 203 220 228 241 241 237 195 225 266 247 213 202 212 215 219 215 205 199 195 187 189 187 184 186 190 184 173 174 177 170 157 151 143 154 143 122 88 74 89 115
219 175 194 207 212 231 229 234 242 231 238 239 253 274 209 196 204 212 214 212 208 201 200 192 189 188 191 188 186 188 179 180 174 176 180 174 170 148 121 112 110 111 102 114
192 191 204 215 212 229 250 184 226 241 254 260 229 261 224 184 217 211 207 207 206 202 199 195 194 191 190 182 183 187 178 179 175 183 172 189 173 150 139 144 131 128 113 114
195 192 223 220 198 196 161 171 174 216 242 249 234 250 254 181 224 215 199 201 202 201 198 195 189 187 183 179 179 183 181 179 174 181 181 184 168 168 158 158 142 141 129 119
193 187 184 192 175 174 205 218 216 212 216 235 161 245 260 58 263 253 222 203 198 197 193 190 183 184 182 182 182 182 184 180 179 183 185 178 177 179 175 164 154 154 140 134
200 192 183 196 213 198 210 231 249 263 255 207 195 242 207 80 265 258 225 204 192 190 189 188 184 184 184 183 183 185 186 183 183 187 184 180 169 182 171 170 159 154 141 131
208 186 160 184 215 216 203 221 264 282 279 265 224 228 218 166 184 175 185 187 186 185 184 185 183 183 183 182 182 187 186 184 183 186 183 180 178 177 176 180 168 156 142 135
225 203 168 162 177 196 249 202 209 237 259 256 241 240 220 164 173 159 170 181 183 181 179 180 180 182 182 181 181 186 188 185 182 183 184 183 181 176 183 179 171 167 151 141
224 215 178 184 206 197 185 201 221 233 251 272 265 139 65 3 332 254 181 179 177 178 179 179 179 179 178 176 179 183 184 185 183 184 182 182 177 179 179 180 172 176 164 159
210 231 210 200 193 246 220 217 219 231 228 249 272 238 95 354 332 290 213 172 176 176 177 177 178 177 177 180 183 186 186 185 186 186 185 185 176 180 183 181 179 176 164 160
183 219 207 191 193 198 216 217 227 243 245 237 244 225 119 355 334 261 211 177 173 172 174 175 178 181 181 183 185 186 189 186 184 186 189 186 182 185 187 184 177 175 168 172
212 225 231 231 229 203 214 215 222 230 237 240 243 261 251 268 278 233 200 186 176 173 175 179 181 185 183 184 188 185 189 187 184 186 191 190 188 188 189 183 179 179 175 178
221 232 235 247 252 232 234 227 221 231 241 250 255 260 269 270 265 239 210 190 181 177 181 185 188 187 186 187 189 187 186 186 187 188 191 191 189 186 185 178 178 180 177 174
223 234 229 233 231 238 244 238 231 233 240 247 256 259 261 269 254 231 215 203 199 190 190 189 191 191 189 187 189 187 186 185 187 189 191 187 188 182 183 183 180 180 179 176
212 225 229 234 225 243 243 234 230 229 232 239 248 254 254 252 245 239 228 217 216 202 194 192 193 194 193 191 190 188 187 184 188 191 190 186 188 183 184 181 181 181 181 176
218 222 228 233 222 235 241 218 226 231 235 235 246 257 254 255 252 245 242 229 225 210 200 198 196 196 195 191 190 186 184 185 189 192 190 187 186 186 182 181 184 187 184 179
218 216 220 225 230 246 237 216 214 225 235 228 236 245 246 249 243 234 234 232 228 216 205 200 199 194 190 188 185 184 184 186 190 193 191 188 186 186 185 188 190 188 184 184
205 215 221 222 230 237 223 185 212 231 239 225 229 233 224 213 228 223 217 212 209 208 200 189 185 185 183 182 181 186 186 187 192 193 193 190 189 189 189 191 190 185 184 187
189 201 216 224 233 244 221 159 184 219 234 194 220 227 217 220 237 218 167 175 183 181 174 168 168 172 175 176 181 189 190 193 192 189 189 188 189 191 189 188 185 183 183 185
198 201 210 217 226 228 150 173 204 249 340 244 230 233 227 225 221 174 150 156 159 152 152 158 160 160 163 172 182 191 195 191 182 182 186 186 186 184 181 180 183 184 182 183
211 210 208 218 228 186 171 201 230 287 282 280 254 234 217 212 206 180 162 155 158 154 152 156 157 153 157 172 185 193 189 178 175 178 182 184 183 182 181 180 182 184 185 190
204 212 218 222 223 223 221 237 246 260 278 286 255 219 201 203 193 182 166 156 152 152 149 155 156 156 159 169 182 189 178 176 176 178 180 180 181 179 180 182 185 186 188 193
208 200 219 229 225 225 227 239 244 262 272 269 235 215 205 195 189 185 175 161 155 153 150 158 161 158 163 168 173 174 171 176 177 177 178 177 176 174 174 175 180 189 191 195
216 216 220 230 216 225 238 245 253 251 252 243 220 213 206 198 191 185 176 171 168 162 158 159 160 160 158 161 164 164 168 174 174 172 172 172 169 169 168 164 154 107 125 129